| time (UTC) | temp F | wind direction | speed MPH | gust MPH | rain 1hr in | rain 24hr in | rain mn in | humidity % | barometer mb |
| 20260507232316 | 96 | 99 | 0.0 | 0.0 | 0.00 | 0.00 | 0.00 | 9 | 1008.6 |
| 20260507231813 | 94 | 117 | 0.0 | 2.0 | 0.00 | 0.00 | 0.00 | 10 | 1008.6 |
| 20260507231310 | 95 | 162 | 0.0 | 3.0 | 0.00 | 0.00 | 0.00 | 10 | 1008.8 |
| 20260507230806 | 95 | 134 | 3.0 | 7.0 | 0.00 | 0.00 | 0.00 | 10 | 1008.7 |
| 20260507230304 | 94 | 190 | 5.0 | 11.0 | 0.00 | 0.00 | 0.00 | 10 | 1008.7 |
| 20260507225804 | 95 | 209 | 0.0 | 3.0 | 0.00 | 0.00 | 0.00 | 10 | 1008.8 |
| 20260507225300 | 94 | 81 | 1.0 | 3.0 | 0.00 | 0.00 | 0.00 | 10 | 1008.8 |
| 20260507224756 | 94 | 124 | 0.0 | 3.0 | 0.00 | 0.00 | 0.00 | 10 | 1008.8 |
| 20260507224253 | 95 | 145 | 1.0 | 5.0 | 0.00 | 0.00 | 0.00 | 10 | 1008.9 |
| 20260507223749 | 95 | 126 | 1.0 | 5.0 | 0.00 | 0.00 | 0.00 | 10 | 1008.7 |
| 20260507223246 | 95 | 116 | 1.0 | 6.0 | 0.00 | 0.00 | 0.00 | 10 | 1008.6 |
| 20260507222743 | 94 | 143 | 2.0 | 5.0 | 0.00 | 0.00 | 0.00 | 10 | 1008.9 |
| 20260507222239 | 94 | 135 | 2.0 | 7.0 | 0.00 | 0.00 | 0.00 | 10 | 1009.3 |
| 20260507221736 | 95 | 72 | 0.0 | 1.0 | 0.00 | 0.00 | 0.00 | 10 | 1009.3 |
| 20260507221232 | 94 | 67 | 0.0 | 5.0 | 0.00 | 0.00 | 0.00 | 11 | 1009.1 |
| 20260507220729 | 94 | 91 | 0.0 | 5.0 | 0.00 | 0.00 | 0.00 | 11 | 1009.3 |
| 20260507220227 | 94 | 100 | 4.0 | 5.0 | 0.00 | 0.00 | 0.00 | 11 | 1009.0 |
| 20260507215723 | 93 | 125 | 0.0 | 3.0 | 0.00 | 0.00 | 0.00 | 10 | 1009.3 |
| 20260507215221 | 93 | 72 | 0.0 | 3.0 | 0.00 | 0.00 | 0.00 | 10 | 1009.2 |
| 20260507214718 | 94 | 116 | 1.0 | 6.0 | 0.00 | 0.00 | 0.00 | 10 | 1009.2 |
| 20260507214215 | 94 | 96 | 4.0 | 6.0 | 0.00 | 0.00 | 0.00 | 10 | 1009.5 |
| 20260507213710 | 94 | 116 | 2.0 | 5.0 | 0.00 | 0.00 | 0.00 | 10 | 1009.4 |
| 20260507213208 | 95 | 129 | 0.0 | 5.0 | 0.00 | 0.00 | 0.00 | 10 | 1009.8 |
| 20260507212703 | 95 | 187 | 0.0 | 7.0 | 0.00 | 0.00 | 0.00 | 10 | 1009.7 |
| 20260507212200 | 93 | 242 | 1.0 | 5.0 | 0.00 | 0.00 | 0.00 | 10 | 1009.9 |
| 20260507211657 | 93 | 226 | 3.0 | 6.0 | 0.00 | 0.00 | 0.00 | 11 | 1009.7 |
| 20260507211153 | 93 | 204 | 1.0 | 8.0 | 0.00 | 0.00 | 0.00 | 11 | 1009.7 |
| 20260507210650 | 94 | 230 | 2.0 | 8.0 | 0.00 | 0.00 | 0.00 | 10 | 1010.1 |
| 20260507210147 | 94 | 99 | 0.0 | 2.0 | 0.00 | 0.00 | 0.00 | 11 | 1010.1 |
| 20260507205643 | 92 | 134 | 0.0 | 2.0 | 0.00 | 0.00 | 0.00 | 11 | 1010.2 |
| 20260507205140 | 92 | 85 | 2.0 | 5.0 | 0.00 | 0.00 | 0.00 | 10 | 1010.3 |
| 20260507204636 | 93 | 51 | 0.0 | 2.0 | 0.00 | 0.00 | 0.00 | 11 | 1010.2 |
| 20260507204134 | 93 | 118 | 0.0 | 0.0 | 0.00 | 0.00 | 0.00 | 11 | 1010.3 |
| 20260507203632 | 91 | 222 | 0.0 | 5.0 | 0.00 | 0.00 | 0.00 | 12 | 1010.3 |
| 20260507203129 | 91 | 302 | 3.0 | 8.0 | 0.00 | 0.00 | 0.00 | 12 | 1010.7 |
| 20260507202625 | 92 | 247 | 3.0 | 6.0 | 0.00 | 0.00 | 0.00 | 11 | 1010.5 |
| 20260507202121 | 92 | 88 | 0.0 | 3.0 | 0.00 | 0.00 | 0.00 | 12 | 1010.7 |
| 20260507201616 | 93 | 74 | 0.0 | 2.0 | 0.00 | 0.00 | 0.00 | 11 | 1010.7 |
| 20260507201114 | 93 | 115 | 0.0 | 1.0 | 0.00 | 0.00 | 0.00 | 12 | 1010.8 |
| 20260507200609 | 93 | 130 | 7.0 | 8.0 | 0.00 | 0.00 | 0.00 | 12 | 1010.7 |
| 20260507200105 | 93 | 229 | 2.0 | 3.0 | 0.00 | 0.00 | 0.00 | 12 | 1011.2 |
| 20260507195603 | 91 | 84 | 0.0 | 0.0 | 0.00 | 0.00 | 0.00 | 12 | 1011.2 |
| 20260507195100 | 91 | 228 | 0.0 | 5.0 | 0.00 | 0.00 | 0.00 | 12 | 1011.3 |
| 20260507194556 | 91 | 260 | 3.0 | 6.0 | 0.00 | 0.00 | 0.00 | 13 | 1011.2 |
| 20260507194052 | 90 | 205 | 0.0 | 1.0 | 0.00 | 0.00 | 0.00 | 13 | 1011.7 |
| 20260507193549 | 91 | 258 | 4.0 | 7.0 | 0.00 | 0.00 | 0.00 | 12 | 1011.5 |
| 20260507193046 | 90 | 246 | 4.0 | 7.0 | 0.00 | 0.00 | 0.00 | 13 | 1011.7 |
| 20260507192542 | 90 | 190 | 1.0 | 3.0 | 0.00 | 0.00 | 0.00 | 13 | 1011.8 |
| 20260507192039 | 89 | 90 | 0.0 | 0.0 | 0.00 | 0.00 | 0.00 | 13 | 1011.9 |
| 20260507191534 | 88 | 66 | 0.0 | 2.0 | 0.00 | 0.00 | 0.00 | 13 | 1012.1 |
| 20260507191032 | 89 | 38 | 3.0 | 5.0 | 0.00 | 0.00 | 0.00 | 14 | 1012.1 |
| 20260507190529 | 89 | 128 | 1.0 | 6.0 | 0.00 | 0.00 | 0.00 | 13 | 1012.2 |
| 20260507190028 | 91 | 88 | 1.0 | 7.0 | 0.00 | 0.00 | 0.00 | 13 | 1012.3 |
| 20260507185526 | 91 | 114 | 0.0 | 2.0 | 0.00 | 0.00 | 0.00 | 14 | 1012.3 |
| 20260507185022 | 90 | 227 | 3.0 | 3.0 | 0.00 | 0.00 | 0.00 | 13 | 1012.5 |
| 20260507184520 | 89 | 222 | 3.0 | 5.0 | 0.00 | 0.00 | 0.00 | 14 | 1012.4 |
| 20260507184018 | 89 | 184 | 2.0 | 5.0 | 0.00 | 0.00 | 0.00 | 14 | 1012.6 |
| 20260507183513 | 88 | 284 | 5.0 | 7.0 | 0.00 | 0.00 | 0.00 | 15 | 1012.8 |
| 20260507183011 | 89 | 244 | 3.0 | 5.0 | 0.00 | 0.00 | 0.00 | 14 | 1012.7 |
| 20260507182507 | 89 | 305 | 1.0 | 2.0 | 0.00 | 0.00 | 0.00 | 15 | 1013.0 |
| 20260507182003 | 89 | 186 | 0.0 | 0.0 | 0.00 | 0.00 | 0.00 | 14 | 1012.8 |
| 20260507181500 | 88 | 108 | 0.0 | 5.0 | 0.00 | 0.00 | 0.00 | 15 | 1012.8 |
| 20260507180956 | 88 | 128 | 3.0 | 9.0 | 0.00 | 0.00 | 0.00 | 15 | 1012.6 |
| 20260507180453 | 89 | 133 | 0.0 | 2.0 | 0.00 | 0.00 | 0.00 | 15 | 1013.1 |
| 20260507175949 | 87 | 105 | 4.0 | 6.0 | 0.00 | 0.00 | 0.00 | 14 | 1013.1 |
| 20260507175446 | 87 | 176 | 0.0 | 2.0 | 0.00 | 0.00 | 0.00 | 16 | 1013.0 |
| 20260507174944 | 88 | 100 | 0.0 | 3.0 | 0.00 | 0.00 | 0.00 | 15 | 1013.1 |
| 20260507174440 | 87 | 162 | 0.0 | 5.0 | 0.00 | 0.00 | 0.00 | 15 | 1013.3 |
| 20260507173938 | 87 | 101 | 1.0 | 2.0 | 0.00 | 0.00 | 0.00 | 15 | 1013.3 |
| 20260507173435 | 86 | 177 | 2.0 | 5.0 | 0.00 | 0.00 | 0.00 | 15 | 1013.2 |
| 20260507172932 | 87 | 165 | 3.0 | 5.0 | 0.00 | 0.00 | 0.00 | 16 | 1013.5 |
| 20260507172428 | 87 | 145 | 0.0 | 0.0 | 0.00 | 0.00 | 0.00 | 15 | 1013.3 |
| 20260507171924 | 86 | 185 | 0.0 | 1.0 | 0.00 | 0.00 | 0.00 | 14 | 1013.6 |
| 20260507171421 | 86 | 106 | 1.0 | 2.0 | 0.00 | 0.00 | 0.00 | 14 | 1013.5 |
| 20260507170918 | 86 | 107 | 0.0 | 0.0 | 0.00 | 0.00 | 0.00 | 14 | 1013.5 |
| 20260507170415 | 86 | 152 | 3.0 | 5.0 | 0.00 | 0.00 | 0.00 | 14 | 1013.3 |
| 20260507165911 | 85 | 121 | 0.0 | 3.0 | 0.00 | 0.00 | 0.00 | 15 | 1013.8 |
| 20260507165407 | 85 | 109 | 0.0 | 5.0 | 0.00 | 0.00 | 0.00 | 15 | 1013.5 |
| 20260507164903 | 84 | 98 | 0.0 | 3.0 | 0.00 | 0.00 | 0.00 | 14 | 1013.4 |
| 20260507164400 | 85 | 110 | 4.0 | 6.0 | 0.00 | 0.00 | 0.00 | 15 | 1013.5 |
| 20260507163857 | 84 | 87 | 0.0 | 6.0 | 0.00 | 0.00 | 0.00 | 15 | 1013.8 |
| 20260507163354 | 85 | 87 | 0.0 | 0.0 | 0.00 | 0.00 | 0.00 | 14 | 1013.8 |
| 20260507162851 | 84 | 95 | 0.0 | 0.0 | 0.00 | 0.00 | 0.00 | 15 | 1013.5 |
| 20260507162346 | 83 | 85 | 0.0 | 3.0 | 0.00 | 0.00 | 0.00 | 15 | 1013.6 |
| 20260507161844 | 82 | 79 | 0.0 | 2.0 | 0.00 | 0.00 | 0.00 | 15 | 1013.8 |
| 20260507161340 | 83 | 120 | 0.0 | 5.0 | 0.00 | 0.00 | 0.00 | 14 | 1014.0 |
| 20260507160837 | 83 | 104 | 1.0 | 3.0 | 0.00 | 0.00 | 0.00 | 15 | 1013.8 |
| 20260507160332 | 82 | 21 | 3.0 | 5.0 | 0.00 | 0.00 | 0.00 | 16 | 1014.2 |
| 20260507155829 | 82 | 75 | 2.0 | 5.0 | 0.00 | 0.00 | 0.00 | 16 | 1014.0 |
| 20260507155325 | 82 | 23 | 1.0 | 3.0 | 0.00 | 0.00 | 0.00 | 17 | 1014.1 |
| 20260507154822 | 81 | 90 | 0.0 | 5.0 | 0.00 | 0.00 | 0.00 | 18 | 1014.0 |
| 20260507154319 | 81 | 61 | 0.0 | 2.0 | 0.00 | 0.00 | 0.00 | 21 | 1013.9 |
| 20260507153816 | 81 | 90 | 0.0 | 3.0 | 0.00 | 0.00 | 0.00 | 21 | 1014.1 |
| 20260507153312 | 80 | 111 | 1.0 | 3.0 | 0.00 | 0.00 | 0.00 | 19 | 1014.1 |
| 20260507152809 | 80 | 83 | 0.0 | 0.0 | 0.00 | 0.00 | 0.00 | 24 | 1014.1 |
| 20260507152306 | 79 | 83 | 0.0 | 0.0 | 0.00 | 0.00 | 0.00 | 23 | 1013.9 |
| 20260507151801 | 78 | 78 | 0.0 | 0.0 | 0.00 | 0.00 | 0.00 | 24 | 1014.1 |
| 20260507151257 | 78 | 76 | 0.0 | 0.0 | 0.00 | 0.00 | 0.00 | 26 | 1014.1 |
| 20260507150754 | 77 | 85 | 0.0 | 0.0 | 0.00 | 0.00 | 0.00 | 28 | 1013.8 |
| 20260507150251 | 75 | 79 | 0.0 | 0.0 | 0.00 | 0.00 | 0.00 | 27 | 1014.0 |
| 20260507145747 | 75 | 63 | 0.0 | 1.0 | 0.00 | 0.00 | 0.00 | 29 | 1014.0 |
| 20260507145244 | 75 | 73 | 0.0 | 0.0 | 0.00 | 0.00 | 0.00 | 29 | 1014.2 |
| 20260507144741 | 74 | 73 | 0.0 | 0.0 | 0.00 | 0.00 | 0.00 | 30 | 1014.0 |
| 20260507144239 | 74 | 56 | 0.0 | 0.0 | 0.00 | 0.00 | 0.00 | 30 | 1013.9 |
| 20260507143735 | 73 | 66 | 0.0 | 0.0 | 0.00 | 0.00 | 0.00 | 31 | 1014.2 |
| 20260507143232 | 72 | 88 | 0.0 | 0.0 | 0.00 | 0.00 | 0.00 | 32 | 1013.8 |
| 20260507142728 | 72 | 58 | 0.0 | 0.0 | 0.00 | 0.00 | 0.00 | 32 | 1014.0 |
| 20260507142225 | 72 | 62 | 0.0 | 0.0 | 0.00 | 0.00 | 0.00 | 32 | 1014.2 |
| 20260507141721 | 71 | 90 | 0.0 | 0.0 | 0.00 | 0.00 | 0.00 | 35 | 1014.1 |
| 20260507141218 | 69 | 87 | 0.0 | 0.0 | 0.00 | 0.00 | 0.00 | 37 | 1014.0 |
| 20260507140714 | 68 | 79 | 0.0 | 0.0 | 0.00 | 0.00 | 0.00 | 38 | 1014.0 |
| 20260507140212 | 68 | 86 | 0.0 | 0.0 | 0.00 | 0.00 | 0.00 | 40 | 1013.9 |
| 20260507135709 | 67 | 82 | 0.0 | 0.0 | 0.00 | 0.00 | 0.00 | 40 | 1014.1 |
| 20260507135206 | 67 | 93 | 0.0 | 0.0 | 0.00 | 0.00 | 0.00 | 41 | 1014.0 |
| 20260507134702 | 67 | 84 | 0.0 | 0.0 | 0.00 | 0.00 | 0.00 | 40 | 1013.8 |
| 20260507134159 | 67 | 86 | 0.0 | 0.0 | 0.00 | 0.00 | 0.00 | 39 | 1014.0 |
| 20260507133654 | 66 | 95 | 0.0 | 0.0 | 0.00 | 0.00 | 0.00 | 45 | 1014.0 |
| 20260507133152 | 65 | 104 | 0.0 | 0.0 | 0.00 | 0.00 | 0.00 | 41 | 1013.9 |
| 20260507132649 | 64 | 88 | 0.0 | 0.0 | 0.00 | 0.00 | 0.00 | 41 | 1013.8 |
| 20260507132145 | 64 | 90 | 0.0 | 0.0 | 0.00 | 0.00 | 0.00 | 42 | 1013.8 |
| 20260507131643 | 64 | 90 | 0.0 | 0.0 | 0.00 | 0.00 | 0.00 | 42 | 1013.8 |
| 20260507131140 | 63 | 98 | 0.0 | 0.0 | 0.00 | 0.00 | 0.00 | 45 | 1013.6 |
| 20260507130636 | 62 | 99 | 0.0 | 0.0 | 0.00 | 0.00 | 0.00 | 45 | 1013.6 |
| 20260507130134 | 62 | 103 | 0.0 | 0.0 | 0.00 | 0.00 | 0.00 | 44 | 1013.5 |
| 20260507125633 | 62 | 89 | 0.0 | 0.0 | 0.00 | 0.00 | 0.00 | 44 | 1013.3 |
| 20260507125130 | 61 | 81 | 0.0 | 0.0 | 0.00 | 0.00 | 0.00 | 45 | 1013.5 |
| 20260507124626 | 60 | 81 | 0.0 | 0.0 | 0.00 | 0.00 | 0.00 | 46 | 1013.3 |
| 20260507124124 | 60 | 100 | 0.0 | 0.0 | 0.00 | 0.00 | 0.00 | 45 | 1013.2 |
| 20260507123622 | 61 | 102 | 0.0 | 0.0 | 0.00 | 0.00 | 0.00 | 45 | 1013.6 |
| 20260507123119 | 61 | 105 | 0.0 | 0.0 | 0.00 | 0.00 | 0.00 | 44 | 1013.4 |
| 20260507122614 | 61 | 111 | 0.0 | 1.0 | 0.00 | 0.00 | 0.00 | 44 | 1013.4 |
| 20260507122110 | 61 | 111 | 0.0 | 0.0 | 0.00 | 0.00 | 0.00 | 47 | 1013.4 |
| 20260507121606 | 61 | 102 | 0.0 | 0.0 | 0.00 | 0.00 | 0.00 | 47 | 1013.1 |
| 20260507121102 | 61 | 111 | 0.0 | 0.0 | 0.00 | 0.00 | 0.00 | 46 | 1013.2 |
| 20260507120558 | 61 | 102 | 0.0 | 0.0 | 0.00 | 0.00 | 0.00 | 50 | 1013.3 |
| 20260507120055 | 62 | 98 | 0.0 | 0.0 | 0.00 | 0.00 | 0.00 | 49 | 1013.2 |
| 20260507115551 | 62 | 85 | 0.0 | 0.0 | 0.00 | 0.00 | 0.00 | 47 | 1013.3 |
| 20260507115047 | 62 | 85 | 0.0 | 0.0 | 0.00 | 0.00 | 0.00 | 47 | 1013.3 |
| 20260507114543 | 62 | 90 | 0.0 | 0.0 | 0.00 | 0.00 | 0.00 | 47 | 1013.5 |
| 20260507114041 | 62 | 118 | 0.0 | 0.0 | 0.00 | 0.00 | 0.00 | 46 | 1013.2 |
| 20260507113538 | 62 | 82 | 0.0 | 0.0 | 0.00 | 0.00 | 0.00 | 46 | 1013.2 |
| 20260507113035 | 62 | 83 | 0.0 | 0.0 | 0.00 | 0.00 | 0.00 | 45 | 1013.2 |
| 20260507112533 | 61 | 86 | 0.0 | 0.0 | 0.00 | 0.00 | 0.00 | 47 | 1013.3 |
| 20260507112029 | 62 | 87 | 0.0 | 0.0 | 0.00 | 0.00 | 0.00 | 47 | 1013.4 |
| 20260507111527 | 62 | 83 | 0.0 | 0.0 | 0.00 | 0.00 | 0.00 | 46 | 1013.1 |
| 20260507111023 | 62 | 83 | 0.0 | 0.0 | 0.00 | 0.00 | 0.00 | 46 | 1013.4 |
| 20260507110519 | 63 | 80 | 0.0 | 0.0 | 0.00 | 0.00 | 0.00 | 45 | 1013.3 |
| 20260507110016 | 62 | 82 | 0.0 | 0.0 | 0.00 | 0.00 | 0.00 | 45 | 1013.4 |
| 20260507105513 | 63 | 73 | 0.0 | 0.0 | 0.00 | 0.00 | 0.00 | 44 | 1013.5 |
| 20260507105009 | 63 | 83 | 0.0 | 0.0 | 0.00 | 0.00 | 0.00 | 43 | 1013.3 |
| 20260507104507 | 63 | 88 | 0.0 | 0.0 | 0.00 | 0.00 | 0.00 | 42 | 1013.8 |
| 20260507104003 | 63 | 80 | 0.0 | 0.0 | 0.00 | 0.00 | 0.00 | 42 | 1013.6 |
| 20260507103500 | 63 | 92 | 0.0 | 0.0 | 0.00 | 0.00 | 0.00 | 43 | 1013.4 |
| 20260507102955 | 63 | 93 | 0.0 | 0.0 | 0.00 | 0.00 | 0.00 | 42 | 1013.8 |
| 20260507102452 | 63 | 96 | 0.0 | 0.0 | 0.00 | 0.00 | 0.00 | 41 | 1013.8 |
| 20260507101948 | 63 | 97 | 0.0 | 0.0 | 0.00 | 0.00 | 0.00 | 43 | 1013.6 |
| 20260507101443 | 64 | 98 | 0.0 | 0.0 | 0.00 | 0.00 | 0.00 | 42 | 1013.8 |
| 20260507100940 | 64 | 86 | 0.0 | 0.0 | 0.00 | 0.00 | 0.00 | 42 | 1013.6 |
| 20260507100438 | 64 | 88 | 0.0 | 0.0 | 0.00 | 0.00 | 0.00 | 40 | 1014.0 |
| 20260507095936 | 64 | 87 | 0.0 | 0.0 | 0.00 | 0.00 | 0.00 | 40 | 1014.0 |
| 20260507095433 | 64 | 102 | 0.0 | 0.0 | 0.00 | 0.00 | 0.00 | 40 | 1013.8 |
| 20260507094930 | 64 | 120 | 0.0 | 0.0 | 0.00 | 0.00 | 0.00 | 40 | 1014.1 |
| 20260507094426 | 65 | 89 | 0.0 | 0.0 | 0.00 | 0.00 | 0.00 | 39 | 1013.9 |
| 20260507093923 | 65 | 86 | 0.0 | 0.0 | 0.00 | 0.00 | 0.00 | 39 | 1014.1 |
| 20260507093421 | 65 | 84 | 0.0 | 0.0 | 0.00 | 0.00 | 0.00 | 40 | 1014.1 |
| 20260507092920 | 65 | 79 | 0.0 | 0.0 | 0.00 | 0.00 | 0.00 | 39 | 1014.2 |
| 20260507092415 | 65 | 89 | 0.0 | 0.0 | 0.00 | 0.00 | 0.00 | 40 | 1014.4 |
| 20260507091912 | 66 | 93 | 0.0 | 0.0 | 0.00 | 0.00 | 0.00 | 39 | 1014.1 |
| 20260507091408 | 65 | 81 | 0.0 | 0.0 | 0.00 | 0.00 | 0.00 | 40 | 1013.9 |
| 20260507090904 | 65 | 86 | 0.0 | 0.0 | 0.00 | 0.00 | 0.00 | 40 | 1014.1 |
| 20260507090401 | 65 | 86 | 0.0 | 0.0 | 0.00 | 0.00 | 0.00 | 41 | 1014.2 |
| 20260507085858 | 64 | 97 | 0.0 | 0.0 | 0.00 | 0.00 | 0.00 | 41 | 1014.3 |
| 20260507085354 | 65 | 90 | 0.0 | 0.0 | 0.00 | 0.00 | 0.00 | 41 | 1014.3 |
| 20260507084851 | 65 | 89 | 0.0 | 0.0 | 0.00 | 0.00 | 0.00 | 39 | 1014.3 |
| 20260507084348 | 65 | 78 | 0.0 | 0.0 | 0.00 | 0.00 | 0.00 | 39 | 1014.2 |
| 20260507083845 | 65 | 93 | 0.0 | 0.0 | 0.00 | 0.00 | 0.00 | 40 | 1014.3 |
| 20260507083341 | 66 | 98 | 0.0 | 0.0 | 0.00 | 0.00 | 0.00 | 40 | 1014.1 |
| 20260507082838 | 66 | 98 | 0.0 | 0.0 | 0.00 | 0.00 | 0.00 | 38 | 1014.1 |
| 20260507082334 | 67 | 88 | 0.0 | 0.0 | 0.00 | 0.00 | 0.00 | 37 | 1014.3 |
| 20260507081831 | 67 | 83 | 0.0 | 0.0 | 0.00 | 0.00 | 0.00 | 36 | 1014.3 |
| 20260507081327 | 67 | 85 | 0.0 | 0.0 | 0.00 | 0.00 | 0.00 | 38 | 1014.3 |
| 20260507080824 | 66 | 86 | 0.0 | 0.0 | 0.00 | 0.00 | 0.00 | 39 | 1014.2 |
| 20260507080320 | 66 | 96 | 0.0 | 0.0 | 0.00 | 0.00 | 0.00 | 39 | 1014.3 |
| 20260507075815 | 66 | 96 | 0.0 | 0.0 | 0.00 | 0.00 | 0.00 | 39 | 1014.1 |
| 20260507075312 | 67 | 93 | 0.0 | 0.0 | 0.00 | 0.00 | 0.00 | 38 | 1014.4 |
| 20260507074809 | 67 | 90 | 0.0 | 0.0 | 0.00 | 0.00 | 0.00 | 36 | 1014.3 |
| 20260507074306 | 68 | 89 | 0.0 | 0.0 | 0.00 | 0.00 | 0.00 | 37 | 1014.4 |
| 20260507073803 | 68 | 92 | 0.0 | 0.0 | 0.00 | 0.00 | 0.00 | 38 | 1014.3 |
| 20260507073300 | 68 | 81 | 0.0 | 0.0 | 0.00 | 0.00 | 0.00 | 39 | 1014.4 |
| 20260507072757 | 68 | 88 | 0.0 | 0.0 | 0.00 | 0.00 | 0.00 | 37 | 1014.3 |
| 20260507072254 | 69 | 82 | 0.0 | 0.0 | 0.00 | 0.00 | 0.00 | 35 | 1014.0 |
| 20260507071752 | 69 | 78 | 0.0 | 0.0 | 0.00 | 0.00 | 0.00 | 36 | 1014.2 |
| 20260507071248 | 69 | 73 | 0.0 | 0.0 | 0.00 | 0.00 | 0.00 | 37 | 1014.3 |
| 20260507070745 | 69 | 70 | 0.0 | 0.0 | 0.00 | 0.00 | 0.00 | 37 | 1014.2 |
| 20260507070242 | 69 | 85 | 0.0 | 0.0 | 0.00 | 0.00 | 0.00 | 38 | 1014.0 |
| 20260507065738 | 69 | 90 | 0.0 | 0.0 | 0.00 | 0.00 | 0.00 | 37 | 1014.1 |
| 20260507065235 | 70 | 88 | 0.0 | 0.0 | 0.00 | 0.00 | 0.00 | 38 | 1014.2 |
| 20260507064733 | 70 | 86 | 0.0 | 0.0 | 0.00 | 0.00 | 0.00 | 36 | 1014.1 |
| 20260507064232 | 71 | 84 | 0.0 | 0.0 | 0.00 | 0.00 | 0.00 | 36 | 1014.3 |
| 20260507063728 | 71 | 75 | 0.0 | 0.0 | 0.00 | 0.00 | 0.00 | 34 | 1014.1 |
| 20260507063225 | 72 | 73 | 0.0 | 0.0 | 0.00 | 0.00 | 0.00 | 30 | 1014.2 |
| 20260507062722 | 73 | 70 | 0.0 | 0.0 | 0.00 | 0.00 | 0.00 | 28 | 1014.3 |
| 20260507062220 | 73 | 92 | 0.0 | 0.0 | 0.00 | 0.00 | 0.00 | 28 | 1014.1 |
| 20260507061717 | 74 | 29 | 0.0 | 0.0 | 0.00 | 0.00 | 0.00 | 27 | 1014.1 |
| 20260507061215 | 74 | 149 | 0.0 | 0.0 | 0.00 | 0.00 | 0.00 | 27 | 1014.1 |
| 20260507060713 | 74 | 97 | 0.0 | 0.0 | 0.00 | 0.00 | 0.00 | 27 | 1014.4 |
| 20260507060209 | 75 | 305 | 0.0 | 0.0 | 0.00 | 0.00 | 0.00 | 27 | 1014.1 |
| 20260507055705 | 75 | 102 | 0.0 | 0.0 | 0.00 | 0.00 | 0.00 | 27 | 1014.0 |
| 20260507055201 | 75 | 344 | 0.0 | 0.0 | 0.00 | 0.00 | 0.00 | 26 | 1014.0 |
| 20260507054657 | 75 | 142 | 0.0 | 0.0 | 0.00 | 0.00 | 0.00 | 27 | 1014.2 |
| 20260507054154 | 75 | 237 | 0.0 | 1.0 | 0.00 | 0.00 | 0.00 | 27 | 1014.0 |
| 20260507053652 | 74 | 216 | 0.0 | 0.0 | 0.00 | 0.00 | 0.00 | 27 | 1014.0 |
| 20260507053150 | 74 | 73 | 0.0 | 0.0 | 0.00 | 0.00 | 0.00 | 27 | 1013.8 |
| 20260507052648 | 74 | 260 | 0.0 | 0.0 | 0.00 | 0.00 | 0.00 | 28 | 1014.1 |
| 20260507052144 | 74 | 160 | 0.0 | 0.0 | 0.00 | 0.00 | 0.00 | 28 | 1014.2 |
| 20260507051642 | 74 | 122 | 0.0 | 0.0 | 0.00 | 0.00 | 0.00 | 28 | 1014.3 |
| 20260507051138 | 75 | 105 | 0.0 | 0.0 | 0.00 | 0.00 | 0.00 | 28 | 1013.9 |
| 20260507050635 | 75 | 162 | 0.0 | 0.0 | 0.00 | 0.00 | 0.00 | 27 | 1014.0 |
| 20260507050132 | 75 | 79 | 0.0 | 0.0 | 0.00 | 0.00 | 0.00 | 28 | 1014.0 |
| 20260507045629 | 75 | 81 | 0.0 | 0.0 | 0.00 | 0.00 | 0.00 | 27 | 1014.0 |
| 20260507045126 | 75 | 12 | 0.0 | 0.0 | 0.00 | 0.00 | 0.00 | 27 | 1013.8 |
| 20260507044622 | 75 | 37 | 0.0 | 0.0 | 0.00 | 0.00 | 0.00 | 27 | 1013.9 |
| 20260507044120 | 76 | 6 | 0.0 | 0.0 | 0.00 | 0.00 | 0.00 | 27 | 1013.8 |
| 20260507043615 | 76 | 332 | 0.0 | 0.0 | 0.00 | 0.00 | 0.00 | 26 | 1014.0 |
| 20260507043113 | 76 | 9 | 0.0 | 0.0 | 0.00 | 0.00 | 0.00 | 26 | 1013.8 |
| 20260507042609 | 76 | 20 | 0.0 | 0.0 | 0.00 | 0.00 | 0.00 | 26 | 1014.0 |
| 20260507042104 | 77 | 54 | 0.0 | 0.0 | 0.00 | 0.00 | 0.00 | 25 | 1013.6 |
| 20260507041601 | 77 | 269 | 0.0 | 0.0 | 0.00 | 0.00 | 0.00 | 25 | 1013.5 |
| 20260507041058 | 77 | 133 | 0.0 | 0.0 | 0.00 | 0.00 | 0.00 | 25 | 1013.6 |
| 20260507040554 | 77 | 106 | 0.0 | 0.0 | 0.00 | 0.00 | 0.00 | 25 | 1013.4 |
| 20260507040051 | 77 | 85 | 0.0 | 0.0 | 0.00 | 0.00 | 0.00 | 25 | 1013.3 |
| 20260507035547 | 77 | 349 | 0.0 | 0.0 | 0.00 | 0.00 | 0.00 | 25 | 1013.2 |
| 20260507035043 | 77 | 133 | 0.0 | 1.0 | 0.00 | 0.00 | 0.00 | 25 | 1013.2 |
| 20260507034540 | 78 | 152 | 0.0 | 0.0 | 0.00 | 0.00 | 0.00 | 25 | 1013.1 |
| 20260507034038 | 78 | 1 | 0.0 | 1.0 | 0.00 | 0.00 | 0.00 | 24 | 1013.1 |
| 20260507033536 | 78 | 298 | 0.0 | 2.0 | 0.00 | 0.00 | 0.00 | 24 | 1013.3 |
| 20260507033033 | 79 | 249 | 0.0 | 2.0 | 0.00 | 0.00 | 0.00 | 24 | 1013.1 |
| 20260507032530 | 79 | 293 | 2.0 | 5.0 | 0.00 | 0.00 | 0.00 | 24 | 1013.0 |
| 20260507032026 | 79 | 53 | 0.0 | 0.0 | 0.00 | 0.00 | 0.00 | 24 | 1013.0 |
| 20260507031522 | 79 | 152 | 0.0 | 1.0 | 0.00 | 0.00 | 0.00 | 23 | 1013.0 |
| 20260507031020 | 79 | 217 | 0.0 | 1.0 | 0.00 | 0.00 | 0.00 | 23 | 1013.0 |
| 20260507030516 | 79 | 70 | 0.0 | 2.0 | 0.00 | 0.00 | 0.00 | 23 | 1013.0 |
| 20260507030014 | 79 | 250 | 1.0 | 5.0 | 0.00 | 0.00 | 0.00 | 23 | 1012.8 |
| 20260507025511 | 79 | 167 | 0.0 | 0.0 | 0.00 | 0.00 | 0.00 | 23 | 1012.8 |
| 20260507025009 | 80 | 116 | 0.0 | 0.0 | 0.00 | 0.00 | 0.00 | 23 | 1012.7 |
| 20260507024506 | 80 | 221 | 0.0 | 0.0 | 0.00 | 0.00 | 0.00 | 23 | 1012.6 |
| 20260507024002 | 80 | 145 | 0.0 | 2.0 | 0.00 | 0.00 | 0.00 | 23 | 1012.8 |
| 20260507023458 | 80 | 289 | 0.0 | 1.0 | 0.00 | 0.00 | 0.00 | 23 | 1012.7 |
| 20260507022956 | 80 | 216 | 0.0 | 0.0 | 0.00 | 0.00 | 0.00 | 23 | 1012.8 |
| 20260507022453 | 80 | 262 | 0.0 | 3.0 | 0.00 | 0.00 | 0.00 | 23 | 1012.4 |
| 20260507021948 | 80 | 241 | 3.0 | 5.0 | 0.00 | 0.00 | 0.00 | 22 | 1012.5 |
| 20260507021444 | 80 | 106 | 0.0 | 3.0 | 0.00 | 0.00 | 0.00 | 23 | 1012.5 |
| 20260507020941 | 81 | 216 | 1.0 | 3.0 | 0.00 | 0.00 | 0.00 | 22 | 1012.4 |
| 20260507020438 | 81 | 236 | 0.0 | 3.0 | 0.00 | 0.00 | 0.00 | 22 | 1012.4 |
| 20260507015935 | 81 | 242 | 2.0 | 6.0 | 0.00 | 0.00 | 0.00 | 22 | 1012.3 |
| 20260507015434 | 81 | 226 | 3.0 | 3.0 | 0.00 | 0.00 | 0.00 | 22 | 1012.4 |
| 20260507014930 | 82 | 242 | 1.0 | 2.0 | 0.00 | 0.00 | 0.00 | 22 | 1012.3 |
| 20260507014427 | 82 | 303 | 1.0 | 2.0 | 0.00 | 0.00 | 0.00 | 22 | 1012.4 |
| 20260507013923 | 82 | 164 | 0.0 | 2.0 | 0.00 | 0.00 | 0.00 | 21 | 1012.5 |
| 20260507013420 | 82 | 201 | 0.0 | 1.0 | 0.00 | 0.00 | 0.00 | 21 | 1012.2 |
| 20260507012918 | 82 | 248 | 4.0 | 6.0 | 0.00 | 0.00 | 0.00 | 21 | 1012.5 |
| 20260507012414 | 82 | 296 | 4.0 | 5.0 | 0.00 | 0.00 | 0.00 | 21 | 1012.2 |
| 20260507011911 | 83 | 196 | 0.0 | 0.0 | 0.00 | 0.00 | 0.00 | 21 | 1012.2 |
| 20260507011408 | 83 | 150 | 0.0 | 3.0 | 0.00 | 0.00 | 0.00 | 21 | 1012.3 |
| 20260507010907 | 83 | 275 | 2.0 | 3.0 | 0.00 | 0.00 | 0.00 | 21 | 1012.1 |
| 20260507010403 | 84 | 284 | 5.0 | 6.0 | 0.00 | 0.00 | 0.00 | 20 | 1012.2 |
| 20260507005901 | 84 | 348 | 0.0 | 0.0 | 0.00 | 0.00 | 0.00 | 20 | 1012.0 |
| 20260507005357 | 83 | 334 | 0.0 | 0.0 | 0.00 | 0.00 | 0.00 | 20 | 1012.2 |
| 20260507004854 | 84 | 273 | 0.0 | 3.0 | 0.00 | 0.00 | 0.00 | 20 | 1012.2 |
| 20260507004351 | 84 | 226 | 0.0 | 1.0 | 0.00 | 0.00 | 0.00 | 20 | 1012.2 |
| 20260507003850 | 83 | 294 | 0.0 | 2.0 | 0.00 | 0.00 | 0.00 | 20 | 1011.9 |
| 20260507003344 | 84 | 304 | 0.0 | 5.0 | 0.00 | 0.00 | 0.00 | 20 | 1012.1 |
| 20260507002839 | 83 | 296 | 4.0 | 7.0 | 0.00 | 0.00 | 0.00 | 21 | 1012.3 |
| 20260507002335 | 83 | 90 | 0.0 | 2.0 | 0.00 | 0.00 | 0.00 | 21 | 1012.3 |
| 20260507001833 | 83 | 95 | 0.0 | 2.0 | 0.00 | 0.00 | 0.00 | 21 | 1012.1 |
| 20260507001329 | 83 | 77 | 0.0 | 1.0 | 0.00 | 0.00 | 0.00 | 20 | 1012.2 |
| 20260507000825 | 84 | 71 | 0.0 | 0.0 | 0.00 | 0.00 | 0.00 | 21 | 1012.3 |
| 20260507000321 | 84 | 97 | 0.0 | 0.0 | 0.00 | 0.00 | 0.00 | 20 | 1012.3 |
| 20260506235818 | 83 | 320 | 2.0 | 5.0 | 0.00 | 0.00 | 0.00 | 21 | 1012.1 |
| 20260506235314 | 85 | 208 | 3.0 | 6.0 | 0.00 | 0.00 | 0.00 | 21 | 1012.1 |
| 20260506234811 | 85 | 98 | 0.0 | 0.0 | 0.00 | 0.00 | 0.00 | 20 | 1012.2 |
| 20260506234308 | 84 | 282 | 2.0 | 6.0 | 0.00 | 0.00 | 0.00 | 20 | 1012.3 |
| 20260506233806 | 83 | 65 | 0.0 | 0.0 | 0.00 | 0.00 | 0.00 | 21 | 1012.3 |
| 20260506233302 | 84 | 305 | 0.0 | 0.0 | 0.00 | 0.00 | 0.00 | 20 | 1012.2 |
| 20260506232759 | 83 | 299 | 2.0 | 8.0 | 0.00 | 0.00 | 0.00 | 21 | 1012.4 |